Regional Weather Roundup
Issued by NWS

Home | Current Version | Previous Version | Graphics & Text | Print | Product List | Glossary Off
Versions: 1 2 3 4 5 6 7 8 9 10 11 12 13 14 15 16 17 18 19 20 21 22 23 24 25 26 27 28 29 30 31 32 33 34 35 36 37 38 39 40 41 42 43 44 45 46 47 48 49 50

000
ASUS43 KTOP 251208
RWRKS

WEATHER ROUNDUP FOR KANSAS
NATIONAL WEATHER SERVICE GOODLAND KS
700 AM CDT THU AUG 25 2016

NOTE:  "FAIR" INDICATES FEW OR NO CLOUDS BELOW 12,000 FEET WITH NO
SIGNIFICANT WEATHER AND/OR OBSTRUCTIONS TO VISIBILITY.

KSZ001>006-013>018-027>032-041>047-251300-
NORTHWEST KANSAS

CITY           SKY/WX    TMP DP  RH WIND       PRES   REMARKS
GOODLAND       PTCLDY    51  48  89 CALM      30.20R
6HR MIN TEMP:  50; 6HR MAX TEMP:  57;

HAYS           CLOUDY    61  52  72 NE10      30.11R
HILL CITY      CLOUDY    59  57  93 CALM      30.16R
6HR MIN TEMP:  58; 6HR MAX TEMP:  64; 6HR PCP:  0.90;

RUSSELL        CLOUDY    60  59  96 N12       30.08R
6HR MIN TEMP:  60; 6HR MAX TEMP:  63; 6HR PCP:  0.28;

$$

KSZ061>065-074>080-084>089-251300-
SOUTHWEST KANSAS

CITY           SKY/WX    TMP DP  RH WIND       PRES   REMARKS
DODGE CITY     CLOUDY    60  59  96 CALM      30.14R
6HR MIN TEMP:  60; 6HR MAX TEMP:  63; 6HR PCP:  0.56;

GARDEN CITY    CLOUDY    59  56  89 CALM      30.15R
6HR MIN TEMP:  58; 6HR MAX TEMP:  62; 6HR PCP:  0.06;

GREAT BEND     CLOUDY    63  54  72 E8        30.10R
LIBERAL        CLOUDY    64  57  77 N6        30.17R
PRATT          CLOUDY    60  60  97 N13       30.11R
6HR MIN TEMP:  60; 6HR MAX TEMP:  66; 6HR PCP:  0.79;

$$

KSZ066>073-081>083-090>101-251300-
SOUTHEAST KANSAS

CITY           SKY/WX    TMP DP  RH WIND       PRES   REMARKS
CHANUTE        CLEAR     67  65  93 S7        30.03S
6HR MIN TEMP:  67; 6HR MAX TEMP:  73; 6HR PCP:  0.76;

COFFEYVILLE    PTCLDY    69  65  86 S7        30.05R
6HR MIN TEMP:  68; 6HR MAX TEMP:  80; 6HR PCP: TRACE;

HUTCHINSON     MOCLDY    67  65  93 NW10      30.08R
6HR MIN TEMP:  66; 6HR MAX TEMP:  70; 6HR PCP:  0.77;

NEWTON         MOCLDY    67  66  97 N5        30.04F
PARSONS        CLEAR     66  65  96 CALM      30.06R
6HR MIN TEMP:  66; 6HR MAX TEMP:  75; 6HR PCP:  0.08;

WICHITA INTL   MOCLDY    69  66  90 E7        30.03S
6HR MIN TEMP:  69; 6HR MAX TEMP:  76; 6HR PCP:  0.05;

WICHITA JABRA  CLOUDY    68  67  96 SE5       30.04S
6HR MIN TEMP:  68; 6HR MAX TEMP:  72;

WICHITA MCCONL MOCLDY    71  65  84 SE7       30.03F
WINFIELD       CLEAR     69  67  93 NW5       30.06R
6HR MIN TEMP:  69; 6HR MAX TEMP:  71; 6HR PCP: TRACE;

$$

KSZ007>012-019>026-033>040-048>060-102>105-251300-
NORTHEAST KANSAS

CITY           SKY/WX    TMP DP  RH WIND       PRES   REMARKS
CONCORDIA      LGT RAIN  60  56  86 N13       30.09F
6HR MIN TEMP:  59; 6HR MAX TEMP:  63; 6HR PCP:  0.45;

EMPORIA        LGT RAIN  69  67  93 SW8       30.05R
6HR MIN TEMP:  69; 6HR MAX TEMP:  72; 6HR PCP:  0.40;

LAWRENCE       CLOUDY    70  50  49 MISG      30.02R
6HR MIN TEMP:  69; 6HR MAX TEMP:  71;

MANHATTAN      TSTM      67  66  97 W5        30.06R VSB 3/4
6HR MIN TEMP:  67; 6HR MAX TEMP:  69; 6HR PCP:  0.81;

MARYSVILLE     LGT RAIN  61  61 100 N9        30.08R
OLATHE IND     LGT RAIN  70  70 100 SE7       30.03S VSB 1/4
6HR MIN TEMP:  70; 6HR MAX TEMP:  70; 6HR PCP:  0.50;

OLATHE EXE     FOG       68  68 100 SE6       30.03S VSB<1/4
6HR MIN TEMP:  68; 6HR MAX TEMP:  69; 6HR PCP:  0.30;

SALINA         CLOUDY    65  63  93 N12       30.08R
6HR MIN TEMP:  65; 6HR MAX TEMP:  68; 6HR PCP:  0.34;

TOPEKA BILLARD HVY RAIN  71  70  96 CALM      30.04R VSB 1
6HR MIN TEMP:  70; 6HR MAX TEMP:  72; 6HR PCP:  0.99;

TOPEKA FORBES  RAIN      72  70  93 S6        30.05R FOG
6HR MIN TEMP:  71; 6HR MAX TEMP:  73; 6HR PCP:  0.89;

$$




USA.gov is the U.S. government's official web portal to all federal, state and local government web resources and services.